Preview of NWS' New Version of Forecast
This preview is not operational and should not be used for support decisions.

Regional Weather Roundup (RWR)

Issued by Mobile/Pensacola (MOB)

                            
000
ASUS44 KMOB 200912
RWRMOB
REGIONAL WEATHER ROUNDUP
NATIONAL WEATHER SERVICE MOBILE AL
300 AM CST WED FEB 20 2019

NOTE: "FAIR" INDICATES FEW OR NO CLOUDS BELOW 12,000 FEET WITH NO
      SIGNIFICANT WEATHER AND/OR OBSTRUCTIONS TO VISIBILITY.

  * THESE STATIONS ARE PART OF THE UNIVERSITY OF SOUTH ALABAMA 
    MESONET AND ARE NOT UNDER NWS OR FAA QUALITY CONTROL. 

ALZ061>064-201000-
COASTAL ALABAMA
  
CITY           SKY/WX    TMP DP  RH WIND       PRES   REMARKS
MOBILE REG APT CLOUDY    69  69 100 SE13      29.98S FOG              
BROOKLEY FIELD CLOUDY    65  65 100 SE7       29.99S FOG              
USA CAMPUS*      N/A     68  68 100 SE10      29.99S                  
DOG RIVER*       N/A     64  64 100 E10       30.00S                  

  
CITY           SKY/WX    TMP DP  RH WIND       PRES   REMARKS
GULF SHORES    CLOUDY   N/A N/A N/A E20G26    30.00S FOG              

$$

ALZ051>060-201000-
INTERIOR SOUTHWEST AND SOUTH CENTRAL ALABAMA
  
CITY           SKY/WX    TMP DP  RH WIND       PRES   REMARKS
GREENVILLE     CLOUDY    53  47  79 E14G20    30.07S                  
EVERGREEN      CLOUDY    58  51  78 E12       30.06R                  
ATMORE*          N/A    N/A N/A N/A SE15      30.04R                  
ANDALUSIA/OPP  CLOUDY    56  50  80 E12G20    30.07F                  
ANDALUSIA*       N/A    N/A N/A N/A SE14      30.06F                  
FLORALA APT    CLOUDY    55  50  83 E10       30.09F                  
FLORALA*       NOT AVBL                                               

$$

FLZ001>006-201000-
WESTERN FLORIDA PANHANDLE
  
CITY           SKY/WX    TMP DP  RH WIND       PRES   REMARKS
PENSACOLA      CLOUDY    63  61  93 E15G23    30.02S                  
NAS PENSACOLA  CLOUDY    64  63  96 E17       30.01R FOG              
MILTON         CLOUDY    58  58 100 E7        30.03S FOG              
WHTNG S FIELD  CLOUDY    59  59 100 E9        30.03S FOG              

  
CITY           SKY/WX    TMP DP  RH WIND       PRES   REMARKS
JAY*             N/A     57  57 100 E16         N/A                   
DUKE FIELD     CLOUDY    59  59 100 E8        30.04S                  
CRESTVIEW      CLOUDY    57  54  89 VRB7      30.06S                  
VALPARAISO     CLOUDY    62  60  93 E13       30.03S                  
DESTIN         CLOUDY    63  60  90 E14       30.03F                  

$$

MSZ076-079-201000-
INTERIOR SOUTHEAST MISSISSIPPI
  
CITY           SKY/WX    TMP DP  RH WIND       PRES   REMARKS
LEAKESVILLE*     N/A    N/A N/A N/A S5        29.97S                  
AGRICOLA*      NOT AVBL                                               

$$

MARINE OBSERVATIONS
  
STATION/POSITION TIME  TEMP    WIND        PRES    WAVE
                       AIR SEA DIR/SP/G            HT/PER
                 (UTC) (F)     (DEG/KT/KT) (MB)    (FT/S)
PETIT BOIS ISLND 0842   66     130/ 10/ 14 1015.4R
GRAND BAY        0745   65     120/ 11     1016.0S
CEDAR POINT      0830   65     130/ 10     1014.9S
E DAUPHIN ISLAND 0900   65     110/ 18/ 21 1014.8R
USCG MOBILE BAY  0842   65 59  130/  9/ 11 1015.3S
STATE DOCKS      0842   65 57              1015.2S
WEEKS BAY        0745   68                 1015.0F
FORT MORGAN      0842   65     120/ 20/ 22 1014.9S
12 S ORANGE BCH  0850   65     110/ 17/ 23 1015.7F   6/ 6
PENSACOLA BAY    0842   63 61  160/  8/ 13 1016.3F
64 S DAUPHIN ISL 0850          140/ 14/ 16 1014.6S   6/ 6

$$

SELECTED LOCATIONS ACROSS THE REGION
  
CITY           SKY/WX    TMP DP  RH WIND       PRES   REMARKS
NEW ORLEANS    FOG       71  71 100 S12       29.90F VSB 3/4          
GULFPORT       FOG       67  67 100 SE14      29.93F VSB 3/4          
PASCAGOULA AP  FOG       70  68  93 SE13      29.96F VSB 1            
PASCAGOULA*      N/A     14  -8  37 SE6       29.96F WCI   5          
HATTIESBURG    LGT RAIN  64  63  96 SE8       29.91F FOG              
LAUREL         CLOUDY    64  64 100 S10       29.90F FOG              
MERIDIAN       CLOUDY    61  58  90 SE10      29.91F                  
JACKSON        CLOUDY    61  60  97 S12       29.84F THUNDER FOG      
MONTGOMERY     CLOUDY    50  47  89 E13G20    30.12R                  
TROY           CLOUDY    48  47  96 E7        30.12F FOG              
ASHFORD*         N/A    N/A N/A N/A SE14      30.06F                  
DOTHAN         CLOUDY    50  48  93 E14       30.14F FOG              
PANAMA CITY    CLOUDY    61  58  90 NE9       30.05F                  

$$